[[{"header":{"parameterUnit":"m.s-1","parameterCategory":2,"la1":30.2991,"la2":30.254,"lo1":-89.0895,"lo2":-89.0444,"dy":0.0017,"dx":0.0017,"nx":28,"ny":28,"refTime":"2024-06-20T03:00:00:Z","depth":"0","parameterNumber":2,"parameterNumberName":"U-component_of_CURRENTS"},"data":[0,0,0,0,0,0,0,0,0,0,0,0,0,0,0,0,0,0,0,0,0,0,0,0,0,0,0,0,0,0,0,0,0,0,0,0,0,0,0,0,0,0,0,0,0,0,0,0,0,0,0,0,0,0,0,0,0,0,-0.2728,-0.2727,0,-0.2645,-0.2644,-0.2643,-0.262,-0.262,-0.2621,-0.2621,-0.2679,-0.268,-0.2681,0,0,0,0,0,0,0,0,0,0,0,0,0,-0.2776,-0.2775,-0.2728,-0.2727,-0.2726,-0.2646,-0.2644,-0.2643,-0.262,-0.262,-0.2621,-0.2622,-0.2679,-0.268,-0.2681,0,0,0,0,0,0,0,0,0,0,0,0,0,-0.273,-0.2775,-0.2728,-0.2705,-0.2702,-0.2646,-0.2644,-0.2643,-0.262,-0.2621,-0.2621,-0.2622,-0.2678,-0.268,-0.2681,-0.2677,0,0,-0.2686,-0.2687,0,0,0,0,0,0,0,0,-0.2733,-0.2728,-0.2709,-0.2706,-0.2703,-0.2644,-0.2682,-0.2661,-0.262,-0.2651,-0.2621,-0.2622,-0.268,-0.2681,-0.2662,-0.2679,-0.2682,-0.2686,-0.2687,-0.2688,-0.2689,0,0,0,0,0,0,0,-0.2736,-0.2731,-0.2695,-0.2708,-0.2704,-0.2668,-0.2663,-0.2677,-0.2665,-0.2648,-0.2646,-0.2637,-0.2679,-0.266,-0.2663,-0.2683,-0.2686,-0.2688,-0.2689,-0.2689,-0.2769,-0.277,0,0,0,0,0,0,-0.2751,-0.2735,-0.2697,-0.2692,-0.272,-0.2667,-0.2661,-0.2662,-0.2661,-0.2661,-0.2637,-0.2636,-0.2657,-0.2662,-0.2666,-0.2689,-0.2688,-0.269,-0.2691,-0.2768,-0.2769,-0.2771,0,0,0,0,0,0,-0.2752,-0.2749,-0.2701,-0.2711,-0.2703,-0.2666,-0.2666,-0.266,-0.2637,-0.2651,-0.2654,-0.2621,-0.2658,-0.2663,-0.2669,-0.2691,-0.269,-0.2692,-0.2767,-0.2769,-0.277,-0.2719,0,0,0,0,0,0,-0.2754,-0.275,-0.2751,-0.2713,-0.2703,-0.2671,-0.2665,-0.2658,-0.2631,-0.263,-0.2639,-0.2644,-0.2659,-0.2666,-0.267,-0.2693,-0.2693,-0.2765,-0.2768,-0.277,-0.2719,-0.2719,-0.2718,0,0,0,0,0,-0.2756,-0.2756,-0.2752,-0.2747,-0.2708,-0.267,-0.2661,-0.2637,-0.263,-0.2619,-0.2619,-0.2644,-0.2685,-0.2667,-0.2672,-0.2696,-0.2764,-0.2767,-0.2769,-0.2719,-0.2719,-0.2718,0,0,0,0,0,0,-0.2765,-0.2752,-0.2748,-0.274,-0.271,-0.2667,-0.2655,-0.2632,-0.2617,-0.2621,-0.2633,-0.2638,-0.2652,-0.2684,-0.2664,-0.2731,-0.274,-0.2743,-0.27,-0.27,-0.27,-0.2742,-0.2694,0,0,0,0,0,-0.2771,-0.2776,-0.2746,-0.2737,-0.2729,-0.269,-0.267,-0.2649,-0.2631,-0.2623,-0.2628,-0.2651,-0.2666,-0.2688,-0.2702,-0.273,-0.2731,-0.2761,-0.276,-0.2759,-0.2801,-0.2787,-0.2788,-0.2779,-0.2779,-0.2779,0,0,-0.2771,-0.2764,-0.2765,-0.2741,-0.272,-0.271,-0.268,-0.265,-0.2652,-0.2636,-0.2644,-0.2633,-0.2667,-0.2689,-0.2704,-0.2721,-0.2753,-0.2762,-0.2761,-0.2805,-0.2789,-0.279,-0.279,-0.2781,-0.2781,-0.278,0,0,-0.2782,-0.2771,-0.2785,-0.2762,-0.2733,-0.2713,-0.2705,-0.2664,-0.2661,-0.2652,-0.2646,-0.2647,-0.2675,-0.2699,-0.2719,-0.2733,-0.2733,-0.2746,-0.2796,-0.2779,-0.2779,-0.2779,-0.2731,-0.2727,-0.2766,-0.2766,-0.2766,0,-0.2787,-0.2786,-0.2776,-0.2777,-0.2758,-0.272,-0.2715,-0.2709,-0.2673,-0.2683,-0.2664,-0.2682,-0.2692,-0.2733,-0.2741,-0.2734,-0.271,-0.2781,-0.2774,-0.2775,-0.2776,-0.2727,-0.2724,-0.2764,-0.2764,-0.2765,-0.2765,0,-0.2812,-0.2796,-0.2795,-0.2797,-0.2785,-0.2757,-0.2754,-0.2752,-0.2737,-0.2729,-0.2741,-0.2728,-0.2752,-0.275,-0.2752,-0.278,-0.2751,-0.2748,-0.2765,-0.2773,-0.2721,-0.2719,-0.2761,-0.2762,-0.2762,-0.2763,0,0,-0.2852,-0.282,-0.2817,-0.2799,-0.278,-0.2764,-0.2798,-0.2803,-0.2825,-0.2803,-0.2827,-0.2835,-0.2815,-0.2839,-0.2824,-0.2827,-0.278,-0.2802,-0.2802,-0.2736,-0.2712,-0.2678,-0.2671,-0.2759,-0.276,-0.276,-0.2652,0,-0.2863,-0.2836,-0.2845,-0.2822,-0.2791,-0.2796,-0.283,-0.2842,-0.285,-0.2868,-0.2871,-0.2876,-0.2856,-0.2846,-0.2846,-0.2798,-0.2782,-0.281,-0.2734,-0.2733,-0.2686,-0.2672,-0.261,-0.251,-0.265,-0.2649,-0.2649,0,-0.2881,-0.2848,-0.2806,-0.2797,-0.2799,-0.2802,-0.2834,-0.2864,-0.2912,-0.2923,-0.294,-0.2932,-0.2938,-0.2907,-0.2851,-0.2861,-0.2802,-0.2761,-0.2755,-0.2758,-0.2697,-0.2538,-0.25,-0.248,-0.2645,-0.2645,-0.2646,0,-0.2844,-0.283,-0.2778,-0.2762,-0.2756,-0.2775,-0.2807,-0.2862,-0.2892,-0.2947,-0.2956,-0.2968,-0.2946,-0.2903,-0.2829,-0.283,-0.2749,-0.2731,-0.2644,-0.2638,-0.2598,-0.2589,-0.2529,-0.2699,-0.2699,-0.2699,-0.27,0,-0.2803,-0.2764,-0.2747,-0.27,-0.2689,-0.2734,-0.2762,-0.281,-0.2879,-0.2906,-0.2963,-0.2958,-0.2944,-0.2898,-0.2836,-0.2729,-0.2744,-0.2662,-0.2621,-0.2574,-0.2564,-0.2559,-0.2591,-0.2695,-0.2696,-0.2697,-0.2698,0,-0.2691,-0.2692,-0.262,-0.2621,-0.2639,-0.2616,-0.2703,-0.2743,-0.2822,-0.2857,-0.287,-0.2923,-0.2873,-0.2845,-0.2761,-0.2714,-0.259,-0.2587,-0.2523,-0.2479,-0.2395,-0.2428,-0.2365,-0.2292,-0.2474,-0.2473,-0.2472,0,-0.2581,-0.2524,-0.2519,-0.2509,-0.2491,-0.2507,-0.255,-0.2668,-0.2719,-0.2813,-0.2819,-0.2819,-0.2795,-0.2685,-0.2619,-0.2516,-0.2506,-0.2403,-0.2422,-0.2396,-0.2402,-0.2406,-0.2348,-0.2314,-0.2311,-0.231,-0.2308,0,-0.2339,-0.2356,-0.2322,-0.2324,-0.2343,-0.2373,-0.2448,-0.2478,-0.2626,-0.2661,-0.2682,-0.2675,-0.2637,-0.254,-0.2464,-0.2385,-0.2372,-0.2362,-0.2353,-0.2308,-0.2292,-0.2198,-0.236,-0.2292,-0.2293,-0.2294,-0.2295,-0.2296,-0.2142,-0.2094,-0.2105,-0.2109,-0.216,-0.2211,-0.2211,-0.2318,-0.2357,-0.2412,-0.2498,-0.2493,-0.2497,-0.2389,-0.2311,-0.2207,-0.2228,-0.215,-0.2194,-0.22,-0.2145,-0.2272,-0.2158,-0.2159,-0.216,-0.216,-0.2161,0,-0.1875,-0.1909,-0.1905,-0.1931,-0.1965,-0.2049,-0.2126,-0.2115,-0.2114,-0.2224,-0.2242,-0.2318,-0.2253,-0.2251,-0.2187,-0.2087,-0.2007,-0.2022,-0.2017,-0.1964,-0.2076,-0.2087,-0.1932,-0.1932,-0.1932,-0.1932,-0.1932,-0.1932,-0.1741,-0.1695,-0.1742,-0.1724,-0.1774,-0.1764,-0.1778,-0.1768,-0.182,-0.1849,-0.1954,-0.2108,-0.2152,-0.2317,-0.2192,-0.2066,-0.1985,-0.1926,-0.191,-0.2019,-0.2035,-0.2049,-0.2064,-0.1907,-0.1908,-0.1719,-0.1718,-0.1718]},{"header":{"parameterUnit":"m.s-1","parameterCategory":2,"la1":30.2991,"la2":30.254,"lo1":-89.0895,"lo2":-89.0444,"dy":0.0017,"dx":0.0017,"nx":28,"ny":28,"refTime":"2024-06-20T03:00:00:Z","depth":"0","parameterNumber":3,"parameterNumberName":"V-component_of_CURRENTS"},"data":[0,0,0,0,0,0,0,0,0,0,0,0,0,0,0,0,0,0,0,0,0,0,0,0,0,0,0,0,0,0,0,0,0,0,0,0,0,0,0,0,0,0,0,0,0,0,0,0,0,0,0,0,0,0,0,0,0,0,-0.0504,-0.0501,0,-0.0241,-0.0237,-0.0234,-0.0103,-0.0103,-0.0104,-0.0104,0.0107,0.0113,0.0119,0,0,0,0,0,0,0,0,0,0,0,0,0,-0.0687,-0.0685,-0.0504,-0.0501,-0.0498,-0.0241,-0.0237,-0.0233,-0.0103,-0.0103,-0.0104,-0.0104,0.0105,0.0112,0.012,0,0,0,0,0,0,0,0,0,0,0,0,0,-0.053,-0.0684,-0.0504,-0.0405,-0.0394,-0.0242,-0.0237,-0.0232,-0.0103,-0.0103,-0.0104,-0.0104,0.0103,0.0112,0.0121,0.0188,0,0,0.0148,0.0152,0,0,0,0,0,0,0,0,-0.0539,-0.0523,-0.0423,-0.0412,-0.0399,-0.0209,-0.0224,-0.0096,-0.0102,-0.0208,-0.0104,-0.0105,-0.0006,0.0012,0.007,0.0197,0.0206,0.0149,0.0154,0.0158,0.0161,0,0,0,0,0,0,0,-0.0551,-0.0532,-0.0395,-0.042,-0.0405,-0.0304,-0.0284,-0.0198,-0.0105,-0.0199,-0.019,-0.0168,0.0001,0.0061,0.0076,0.021,0.0149,0.0157,0.0162,0.0166,0.0386,0.0386,0,0,0,0,0,0,-0.0602,-0.0544,-0.0403,-0.0388,-0.0477,-0.0301,-0.0278,-0.0266,-0.0104,-0.0081,-0.0168,-0.0163,0.0046,0.0065,0.0083,0.0154,0.0158,0.0166,0.0172,0.0385,0.0386,0.0386,0,0,0,0,0,0,-0.0607,-0.0593,-0.0414,-0.0462,-0.0433,-0.03,-0.0285,-0.0261,-0.0213,-0.0081,-0.0057,-0.0149,0.0046,0.0071,0.015,0.0163,0.0171,0.0179,0.0385,0.0385,0.0386,0.0305,0,0,0,0,0,0,-0.0614,-0.0596,-0.0598,-0.0467,-0.0433,-0.0339,-0.0284,-0.0255,-0.02,-0.0191,-0.0056,-0.0036,0.0048,0.0136,0.0159,0.0175,0.0186,0.0384,0.0385,0.0386,0.0307,0.0303,0.0299,0,0,0,0,0,-0.0621,-0.0627,-0.06,-0.0582,-0.0443,-0.0339,-0.0311,-0.0214,-0.02,-0.0175,-0.009,-0.0041,0.0157,0.0144,0.0171,0.019,0.0384,0.0385,0.0386,0.0309,0.0304,0.03,0,0,0,0,0,0,-0.0698,-0.061,-0.0579,-0.0555,-0.0464,-0.0319,-0.0286,-0.0231,-0.0138,-0.0138,-0.0028,-0.0,0.0071,0.0139,0.012,0.0255,0.0277,0.0283,0.0209,0.0205,0.0201,0.0196,0.0193,0,0,0,0,0,-0.0722,-0.0704,-0.0598,-0.0574,-0.0543,-0.0422,-0.0369,-0.0305,-0.0209,-0.0169,-0.0069,0.0024,0.0103,0.0154,0.024,0.0318,0.0359,0.0345,0.0341,0.0338,0.0351,0.0408,0.041,0.039,0.039,0.039,0,0,-0.0746,-0.0691,-0.0682,-0.0589,-0.0513,-0.0444,-0.0391,-0.0321,-0.0252,-0.0162,-0.0051,0.0011,0.0116,0.0204,0.0243,0.0261,0.036,0.0339,0.0335,0.0351,0.0409,0.0411,0.0413,0.039,0.039,0.039,0,0,-0.0776,-0.074,-0.0734,-0.0661,-0.0563,-0.0475,-0.047,-0.0337,-0.0274,-0.0169,-0.0099,-0.0035,0.0114,0.0193,0.0247,0.0271,0.0328,0.0292,0.0286,0.0339,0.0341,0.0343,0.0371,0.0376,0.0301,0.0301,0.0301,0,-0.0811,-0.0769,-0.0712,-0.067,-0.0604,-0.0502,-0.0454,-0.0365,-0.0216,-0.0167,-0.0149,0.0042,0.0116,0.0217,0.0227,0.0264,0.0293,0.029,0.0332,0.0335,0.0339,0.0367,0.0374,0.0297,0.0298,0.0298,0.0298,0,-0.0812,-0.0774,-0.076,-0.067,-0.0602,-0.0537,-0.0421,-0.0348,-0.0272,-0.0179,-0.0077,0.0026,0.0136,0.0162,0.021,0.0275,0.0284,0.0306,0.0336,0.0336,0.0366,0.0374,0.0292,0.0293,0.0294,0.0295,0,0,-0.0886,-0.0784,-0.0774,-0.073,-0.059,-0.0532,-0.0436,-0.031,-0.0257,-0.0132,-0.0057,0.0069,0.0103,0.0166,0.0222,0.0274,0.0307,0.0298,0.0302,0.0312,0.0406,0.0435,0.0447,0.0331,0.0333,0.0334,0.0405,0,-0.0888,-0.0824,-0.0762,-0.0676,-0.0624,-0.0511,-0.0428,-0.0315,-0.0214,-0.0117,-0.0022,0.0064,0.0112,0.014,0.0204,0.0284,0.0332,0.0285,0.0419,0.0423,0.0438,0.046,0.049,0.0559,0.0414,0.0415,0.0417,0,-0.0891,-0.0838,-0.0771,-0.0668,-0.0641,-0.0582,-0.0443,-0.0358,-0.0217,-0.0152,-0.0055,0.0024,0.0128,0.0149,0.0302,0.0267,0.0332,0.0389,0.0394,0.0463,0.047,0.0545,0.0581,0.0757,0.0431,0.043,0.0429,0,-0.093,-0.0842,-0.0786,-0.0739,-0.0612,-0.0577,-0.051,-0.0376,-0.0318,-0.0186,-0.0147,-0.0,0.0055,0.0175,0.0306,0.0302,0.0456,0.0466,0.0556,0.0557,0.0634,0.064,0.0852,0.0567,0.0567,0.0566,0.0566,0,-0.092,-0.0871,-0.0812,-0.0766,-0.0723,-0.0632,-0.0577,-0.0488,-0.0391,-0.0337,-0.0189,-0.0128,0.0062,0.018,0.0297,0.0459,0.0455,0.0567,0.059,0.0604,0.0607,0.0806,0.087,0.0569,0.0568,0.0568,0.0567,0,-0.0922,-0.0882,-0.0825,-0.0745,-0.0735,-0.0704,-0.0644,-0.0611,-0.0509,-0.0441,-0.0409,-0.0226,-0.0063,0.0126,0.0318,0.0438,0.0696,0.064,0.0633,0.0655,0.0908,0.0964,0.1197,0.1287,0.076,0.0762,0.0763,0,-0.0888,-0.0865,-0.0833,-0.0845,-0.0809,-0.0777,-0.0767,-0.0677,-0.0647,-0.0501,-0.0482,-0.0304,-0.017,0.0137,0.0389,0.0621,0.0749,0.0778,0.0793,0.0947,0.1028,0.1073,0.1134,0.085,0.0851,0.0853,0.0854,0,-0.0829,-0.0845,-0.082,-0.0865,-0.088,-0.0877,-0.0862,-0.0863,-0.0758,-0.0702,-0.0604,-0.049,-0.015,0.016,0.0493,0.0632,0.092,0.0814,0.0996,0.1144,0.1189,0.1276,0.0754,0.0867,0.0865,0.0864,0.0864,0.0863,-0.0805,-0.0811,-0.0844,-0.0883,-0.0922,-0.0972,-0.0989,-0.0978,-0.0955,-0.0871,-0.0731,-0.0547,-0.0029,0.0458,0.0652,0.1081,0.1032,0.1196,0.1256,0.129,0.1386,0.088,0.1006,0.1005,0.1005,0.1005,0.1004,0,-0.0776,-0.082,-0.0865,-0.0937,-0.101,-0.1014,-0.1047,-0.1069,-0.1075,-0.0972,-0.0866,-0.0342,0.0175,0.0667,0.1292,0.1523,0.1579,0.1622,0.1714,0.1758,0.134,0.1354,0.1537,0.1537,0.1537,0.1536,0.1536,0.1536,-0.0773,-0.0822,-0.0866,-0.1002,-0.1065,-0.1152,-0.1182,-0.1201,-0.115,-0.0992,-0.074,-0.0516,0.0242,0.1331,0.1936,0.1974,0.2174,0.2138,0.2244,0.1975,0.194,0.1907,0.1941,0.2243,0.2244,0.2654,0.2658,0.2661]}],[{"header":{"parameterUnit":"m.s-1","parameterCategory":2,"la1":30.2991,"la2":30.254,"lo1":-89.0895,"lo2":-89.0444,"dy":0.0017,"dx":0.0017,"nx":28,"ny":28,"refTime":"2024-06-20T03:00:00:Z","depth":"2","parameterNumber":2,"parameterNumberName":"U-component_of_CURRENTS"},"data":[0,0,0,0,0,0,0,0,0,0,0,0,0,0,0,0,0,0,0,0,0,0,0,0,0,0,0,0,0,0,0,0,0,0,0,0,0,0,0,0,0,0,0,0,0,0,0,0,0,0,0,0,0,0,0,0,0,0,-0.2191,-0.2193,0,-0.2305,-0.2306,-0.2307,-0.2319,-0.2318,-0.2317,-0.2316,-0.2243,-0.2242,-0.2241,0,0,0,0,0,0,0,0,0,0,0,0,0,-0.2075,-0.2076,-0.2191,-0.2193,-0.2194,-0.2304,-0.2306,-0.2307,-0.2319,-0.2318,-0.2316,-0.2315,-0.2244,-0.2242,-0.2241,0,0,0,0,0,0,0,0,0,0,0,0,0,-0.2148,-0.2077,-0.2191,-0.2215,-0.2219,-0.2304,-0.2306,-0.2307,-0.2319,-0.2318,-0.2316,-0.2315,-0.2244,-0.2242,-0.2241,-0.226,0,0,-0.2236,-0.2236,0,0,0,0,0,0,0,0,-0.2144,-0.2152,-0.221,-0.2214,-0.2218,-0.2298,-0.2239,-0.2283,-0.2319,-0.2279,-0.2316,-0.2314,-0.2247,-0.2245,-0.2269,-0.2257,-0.2254,-0.2236,-0.2235,-0.2234,-0.2234,0,0,0,0,0,0,0,-0.2139,-0.2148,-0.2234,-0.2212,-0.2217,-0.2251,-0.2259,-0.2248,-0.2264,-0.2282,-0.2284,-0.23,-0.2247,-0.2271,-0.2267,-0.2253,-0.2236,-0.2235,-0.2234,-0.2233,-0.2248,-0.225,0,0,0,0,0,0,-0.2126,-0.2143,-0.223,-0.2237,-0.2179,-0.2254,-0.2263,-0.2272,-0.2268,-0.2269,-0.2301,-0.23,-0.2274,-0.2269,-0.2264,-0.2266,-0.2234,-0.2233,-0.2232,-0.2247,-0.2249,-0.225,0,0,0,0,0,0,-0.2123,-0.2133,-0.2226,-0.2195,-0.2209,-0.2257,-0.2268,-0.2275,-0.2307,-0.2286,-0.2281,-0.2327,-0.2273,-0.2266,-0.2245,-0.2263,-0.2232,-0.2231,-0.2246,-0.2248,-0.2249,-0.2282,0,0,0,0,0,0,-0.2119,-0.2131,-0.2121,-0.2194,-0.2211,-0.2269,-0.227,-0.2278,-0.232,-0.232,-0.2306,-0.2298,-0.2271,-0.2248,-0.2244,-0.2261,-0.223,-0.2244,-0.2246,-0.2249,-0.2279,-0.2285,-0.2289,0,0,0,0,0,-0.2115,-0.2118,-0.2119,-0.213,-0.2199,-0.227,-0.2282,-0.231,-0.2322,-0.2335,-0.2319,-0.2298,-0.2262,-0.2247,-0.2242,-0.2259,-0.2243,-0.2246,-0.2249,-0.2277,-0.2283,-0.2289,0,0,0,0,0,0,-0.2046,-0.2122,-0.2125,-0.2143,-0.2196,-0.2273,-0.229,-0.2324,-0.2332,-0.2327,-0.2304,-0.2295,-0.2284,-0.2274,-0.2259,-0.2275,-0.2254,-0.2256,-0.2277,-0.2284,-0.2289,-0.2313,-0.2228,0,0,0,0,0,-0.203,-0.2063,-0.2127,-0.2142,-0.2168,-0.2233,-0.2264,-0.2297,-0.2324,-0.233,-0.2319,-0.231,-0.2298,-0.229,-0.2274,-0.2281,-0.2264,-0.2294,-0.23,-0.2304,-0.2323,-0.2319,-0.2326,-0.226,-0.226,-0.226,0,0,-0.2011,-0.2055,-0.2071,-0.2132,-0.2175,-0.2237,-0.2247,-0.2308,-0.2353,-0.2316,-0.2345,-0.232,-0.2303,-0.2302,-0.2299,-0.2292,-0.2308,-0.2308,-0.2311,-0.2329,-0.2323,-0.2329,-0.2335,-0.2262,-0.2262,-0.2261,0,0,-0.2052,-0.2026,-0.21,-0.2134,-0.221,-0.2238,-0.2261,-0.2338,-0.2353,-0.2386,-0.2366,-0.2356,-0.235,-0.234,-0.2335,-0.2368,-0.2331,-0.2365,-0.2413,-0.2408,-0.2413,-0.2417,-0.2374,-0.2375,-0.2372,-0.2373,-0.2373,0,-0.203,-0.2102,-0.2127,-0.2204,-0.222,-0.2245,-0.2313,-0.2344,-0.2402,-0.2407,-0.2394,-0.2396,-0.2377,-0.2381,-0.2394,-0.2379,-0.2356,-0.2383,-0.2413,-0.2418,-0.2422,-0.2377,-0.2377,-0.2374,-0.2374,-0.2374,-0.2374,0,-0.2139,-0.2178,-0.2212,-0.2303,-0.233,-0.2369,-0.2413,-0.2429,-0.2439,-0.2472,-0.2475,-0.245,-0.2452,-0.2448,-0.2432,-0.2454,-0.2419,-0.2412,-0.2393,-0.243,-0.238,-0.2379,-0.2377,-0.2377,-0.2376,-0.2375,0,0,-0.2184,-0.2266,-0.2288,-0.2298,-0.2363,-0.2387,-0.2441,-0.2481,-0.2498,-0.2528,-0.2555,-0.2547,-0.2534,-0.253,-0.2503,-0.2508,-0.2505,-0.2481,-0.248,-0.243,-0.2464,-0.2425,-0.242,-0.2498,-0.2498,-0.2499,-0.2405,0,-0.2265,-0.2344,-0.2402,-0.2461,-0.2479,-0.2483,-0.2518,-0.2551,-0.256,-0.2581,-0.2576,-0.2583,-0.2566,-0.2554,-0.2563,-0.2521,-0.251,-0.2529,-0.2444,-0.2441,-0.2397,-0.2422,-0.2261,-0.2165,-0.2404,-0.2404,-0.2404,0,-0.2369,-0.2404,-0.2443,-0.2463,-0.2479,-0.2512,-0.2499,-0.2553,-0.2592,-0.2602,-0.2623,-0.2625,-0.2638,-0.2617,-0.2579,-0.2588,-0.254,-0.2505,-0.25,-0.2461,-0.2404,-0.2175,-0.2154,-0.2403,-0.2403,-0.2403,-0.2403,0,-0.2322,-0.2422,-0.2407,-0.2413,-0.2467,-0.2476,-0.2503,-0.2543,-0.2564,-0.2617,-0.2629,-0.265,-0.2648,-0.262,-0.2569,-0.2572,-0.2514,-0.2502,-0.2412,-0.2406,-0.2255,-0.2235,-0.2476,-0.2476,-0.2477,-0.2477,-0.2477,0,-0.2333,-0.2348,-0.2364,-0.2365,-0.2353,-0.2426,-0.2438,-0.2467,-0.2532,-0.2558,-0.2629,-0.2626,-0.2655,-0.2631,-0.2579,-0.2492,-0.2515,-0.2428,-0.2394,-0.2259,-0.2242,-0.2448,-0.2446,-0.2473,-0.2474,-0.2475,-0.2475,0,-0.2261,-0.2292,-0.2273,-0.2308,-0.2324,-0.2299,-0.2376,-0.2395,-0.247,-0.2508,-0.253,-0.2603,-0.2583,-0.2576,-0.2524,-0.2487,-0.2414,-0.2368,-0.2197,-0.2147,-0.23,-0.2301,-0.2268,-0.2266,-0.2265,-0.2263,-0.2262,0,-0.2174,-0.216,-0.2171,-0.2169,-0.2184,-0.2196,-0.2225,-0.2325,-0.2352,-0.2467,-0.2465,-0.2509,-0.2499,-0.2425,-0.2373,-0.2281,-0.2332,-0.2088,-0.2091,-0.2316,-0.2286,-0.2289,-0.2292,-0.1872,-0.1868,-0.1864,-0.1862,0,-0.2007,-0.2016,-0.2015,-0.2016,-0.203,-0.2056,-0.2104,-0.2117,-0.2255,-0.2284,-0.232,-0.234,-0.2337,-0.2213,-0.2153,-0.2069,-0.2105,-0.2018,-0.2282,-0.1976,-0.1943,-0.1913,-0.1929,-0.1831,-0.1834,-0.1836,-0.1838,-0.1839,-0.1827,-0.1791,-0.1808,-0.1812,-0.1857,-0.1895,-0.1879,-0.1957,-0.198,-0.2029,-0.2133,-0.2123,-0.2134,-0.1977,-0.1861,-0.1784,-0.1919,-0.1834,-0.1844,-0.1858,-0.1856,-0.1825,-0.1687,-0.1689,-0.1691,-0.1692,-0.1694,0,-0.1574,-0.1622,-0.1612,-0.1634,-0.1649,-0.1735,-0.1784,-0.1754,-0.1737,-0.1832,-0.1861,-0.1724,-0.1675,-0.1672,-0.1526,-0.15,-0.1465,-0.1422,-0.1385,-0.1417,-0.1444,-0.1421,-0.1136,-0.1135,-0.1133,-0.1131,0,0,-0.1452,-0.1408,-0.1451,-0.1416,-0.1462,-0.1435,-0.144,-0.142,-0.1445,-0.1407,-0.1432,-0.1623,-0.1661,-0.142,-0.1347,-0.1226,-0.1301,-0.1158,-0.1608,-0.1597,-0.1623,-0.1688,-0.1689,0,0,0,0,0]},{"header":{"parameterUnit":"m.s-1","parameterCategory":2,"la1":30.2991,"la2":30.254,"lo1":-89.0895,"lo2":-89.0444,"dy":0.0017,"dx":0.0017,"nx":28,"ny":28,"refTime":"2024-06-20T03:00:00:Z","depth":"2","parameterNumber":3,"parameterNumberName":"V-component_of_CURRENTS"},"data":[0,0,0,0,0,0,0,0,0,0,0,0,0,0,0,0,0,0,0,0,0,0,0,0,0,0,0,0,0,0,0,0,0,0,0,0,0,0,0,0,0,0,0,0,0,0,0,0,0,0,0,0,0,0,0,0,0,0,-0.0166,-0.0166,0,-0.0042,-0.004,-0.0038,0.0056,0.0056,0.0057,0.0057,0.026,0.0265,0.027,0,0,0,0,0,0,0,0,0,0,0,0,0,-0.0297,-0.0294,-0.0166,-0.0166,-0.0165,-0.0043,-0.004,-0.0038,0.0056,0.0056,0.0057,0.0057,0.0258,0.0264,0.027,0,0,0,0,0,0,0,0,0,0,0,0,0,-0.0205,-0.0293,-0.0167,-0.0109,-0.0104,-0.0043,-0.004,-0.0037,0.0056,0.0056,0.0057,0.0057,0.0256,0.0264,0.0271,0.0317,0,0,0.0296,0.0299,0,0,0,0,0,0,0,0,-0.0211,-0.0199,-0.0119,-0.0113,-0.0107,-0.0016,-0.0012,0.0082,0.0056,0.0004,0.0057,0.0057,0.0169,0.0184,0.0218,0.0326,0.0335,0.0296,0.0301,0.0305,0.0307,0,0,0,0,0,0,0,-0.0217,-0.0204,-0.0109,-0.0118,-0.0111,-0.0082,-0.0068,0.0007,0.0092,0.0009,0.0014,0.0014,0.0174,0.021,0.0224,0.0338,0.0296,0.0303,0.0308,0.0311,0.0472,0.0471,0,0,0,0,0,0,-0.025,-0.021,-0.0113,-0.0106,-0.0169,-0.0081,-0.0065,-0.0038,0.009,0.0107,0.0014,0.0018,0.0196,0.0214,0.0231,0.0278,0.0304,0.0312,0.0317,0.0472,0.0472,0.0471,0,0,0,0,0,0,-0.0253,-0.0241,-0.0118,-0.0164,-0.0147,-0.008,-0.005,-0.0036,-0.0016,0.0091,0.0112,0.0017,0.0197,0.022,0.029,0.0287,0.0316,0.0323,0.0473,0.0472,0.0471,0.0382,0,0,0,0,0,0,-0.0257,-0.0242,-0.0227,-0.0165,-0.0146,-0.0092,-0.0051,-0.0034,-0.0019,-0.0012,0.0101,0.0121,0.0199,0.0277,0.0297,0.0299,0.0329,0.0474,0.0473,0.0472,0.0386,0.0378,0.0372,0,0,0,0,0,-0.0261,-0.0259,-0.0226,-0.0214,-0.0128,-0.0093,-0.0079,-0.0026,-0.002,-0.0007,0.0065,0.0117,0.0285,0.0284,0.0307,0.0311,0.0474,0.0473,0.0472,0.0389,0.038,0.0372,0,0,0,0,0,0,-0.0306,-0.0247,-0.021,-0.0187,-0.0145,-0.008,-0.0074,-0.0045,0.0021,0.0025,0.0122,0.0148,0.0202,0.0265,0.026,0.0351,0.0384,0.0387,0.0312,0.0305,0.0298,0.0295,0.0336,0,0,0,0,0,-0.031,-0.0288,-0.0229,-0.0209,-0.0198,-0.014,-0.012,-0.0086,-0.0029,-0.0001,0.0079,0.0156,0.0219,0.0266,0.0335,0.0395,0.0442,0.0408,0.0401,0.0395,0.0407,0.0469,0.0469,0.0467,0.0467,0.0467,0,0,-0.0329,-0.0289,-0.028,-0.0218,-0.0183,-0.016,-0.0126,-0.0109,-0.0075,0.0012,0.0081,0.0134,0.0225,0.0289,0.0319,0.0343,0.0413,0.0393,0.0388,0.0404,0.0468,0.0468,0.0468,0.0467,0.0467,0.0467,0,0,-0.0377,-0.0318,-0.0327,-0.029,-0.0247,-0.0194,-0.0202,-0.0139,-0.0097,-0.0031,0.0027,0.0077,0.0193,0.0257,0.0301,0.0298,0.0365,0.031,0.0293,0.0351,0.0352,0.0354,0.0382,0.0387,0.0318,0.0318,0.0318,0,-0.0398,-0.0377,-0.0327,-0.0321,-0.0291,-0.0221,-0.0217,-0.016,-0.0075,-0.004,-0.0021,0.0117,0.0182,0.0254,0.0253,0.0284,0.032,0.0315,0.0343,0.0345,0.0348,0.0378,0.0385,0.0314,0.0314,0.0315,0.0315,0,-0.0437,-0.0423,-0.0431,-0.0377,-0.0342,-0.0324,-0.0247,-0.02,-0.0145,-0.0082,-0.001,0.0078,0.0162,0.0176,0.0222,0.0269,0.0285,0.0315,0.0361,0.0343,0.0375,0.0383,0.0307,0.0309,0.031,0.0311,0,0,-0.0485,-0.0458,-0.0459,-0.0446,-0.0361,-0.0339,-0.0282,-0.0202,-0.0171,-0.008,-0.0032,0.0062,0.0099,0.015,0.0201,0.0254,0.0286,0.0291,0.0296,0.0315,0.0397,0.0421,0.0433,0.0323,0.0325,0.0326,0.0399,0,-0.0523,-0.0524,-0.0491,-0.048,-0.0474,-0.0384,-0.0334,-0.0255,-0.0174,-0.0103,-0.0014,0.0049,0.0095,0.0119,0.018,0.0265,0.031,0.0263,0.0417,0.0422,0.0443,0.0445,0.0402,0.0466,0.0408,0.041,0.0411,0,-0.055,-0.0556,-0.0557,-0.0523,-0.0513,-0.0486,-0.0386,-0.0335,-0.0219,-0.0165,-0.0081,-0.0004,0.0089,0.0119,0.027,0.0239,0.0311,0.0372,0.0377,0.0445,0.0463,0.0483,0.0485,0.0426,0.0424,0.0423,0.0422,0,-0.0585,-0.0585,-0.0579,-0.0562,-0.0522,-0.0507,-0.0462,-0.036,-0.032,-0.0207,-0.0173,-0.0039,0.0021,0.0143,0.028,0.0279,0.0438,0.0455,0.054,0.0541,0.0561,0.0562,0.0554,0.0554,0.0554,0.0553,0.0553,0,-0.0605,-0.0611,-0.0604,-0.0613,-0.0613,-0.0562,-0.0538,-0.0473,-0.0396,-0.0356,-0.0219,-0.0163,0.0032,0.0154,0.0273,0.0437,0.0439,0.0545,0.0573,0.0525,0.0521,0.054,0.0538,0.0556,0.0556,0.0555,0.0555,0,-0.0628,-0.0624,-0.0638,-0.0635,-0.0637,-0.0632,-0.0602,-0.0586,-0.0505,-0.045,-0.042,-0.0248,-0.0082,0.0104,0.0304,0.0421,0.0573,0.0622,0.0539,0.0557,0.0633,0.0625,0.0734,0.0735,0.0737,0.0738,0.0739,0,-0.0614,-0.0633,-0.0658,-0.0693,-0.0701,-0.0701,-0.0707,-0.0644,-0.0626,-0.0504,-0.0486,-0.0311,-0.0181,0.0126,0.0364,0.0589,0.0594,0.0678,0.068,0.064,0.0657,0.0647,0.0637,0.0652,0.0653,0.0653,0.0653,0,-0.0622,-0.0633,-0.0662,-0.0737,-0.0774,-0.0798,-0.0801,-0.0808,-0.073,-0.0683,-0.059,-0.048,-0.0158,0.0108,0.0423,0.0546,0.0646,0.069,0.069,0.0615,0.0571,0.0585,0.0577,0.0654,0.0654,0.0654,0.0654,0.0654,-0.0611,-0.0641,-0.0701,-0.0768,-0.0825,-0.0887,-0.0911,-0.0912,-0.09,-0.0826,-0.0697,-0.0526,-0.0214,0.0217,0.0458,0.0685,0.0685,0.0741,0.0737,0.0734,0.0714,0.0675,0.0772,0.0773,0.0773,0.0773,0.0774,0,-0.0604,-0.0667,-0.0732,-0.0831,-0.0907,-0.0925,-0.097,-0.0987,-0.0994,-0.0909,-0.081,-0.0494,-0.0159,0.0156,0.0525,0.0755,0.0733,0.0777,0.0714,0.0711,0.0708,0.0684,0.0736,0.0737,0.0738,0.0738,0,0,-0.0614,-0.0687,-0.0739,-0.0885,-0.0957,-0.105,-0.1083,-0.1092,-0.1049,-0.0992,-0.0864,-0.0631,-0.0204,0.0054,0.0357,0.0553,0.0555,0.0555,0.0559,0.0442,0.0436,0.0662,0.0619,0,0,0,0,0]}],[{"header":{"parameterUnit":"m.s-1","parameterCategory":2,"la1":30.2991,"la2":30.254,"lo1":-89.0895,"lo2":-89.0444,"dy":0.0017,"dx":0.0017,"nx":28,"ny":28,"refTime":"2024-06-20T03:00:00:Z","depth":"4","parameterNumber":2,"parameterNumberName":"U-component_of_CURRENTS"},"data":[0,0,0,0,0,0,0,0,0,0,0,0,0,0,0,0,0,0,0,0,0,0,0,0,0,0,0,0,0,0,0,0,0,0,0,0,0,0,0,0,0,0,0,0,0,0,0,0,0,0,0,0,0,0,0,0,0,0,-0.0584,-0.0585,0,-0.0628,-0.0629,-0.0629,-0.0646,-0.0646,-0.0646,-0.0646,-0.0785,-0.0788,-0.0792,0,0,0,0,0,0,0,0,0,0,0,0,0,-0.0482,-0.0483,-0.0584,-0.0585,-0.0586,-0.0628,-0.0629,-0.0629,-0.0646,-0.0646,-0.0646,-0.0646,-0.0784,-0.0788,-0.0792,0,0,0,0,0,0,0,0,0,0,0,0,0,-0.0523,-0.0484,-0.0584,-0.0601,-0.0604,-0.0628,-0.0629,-0.0629,-0.0646,-0.0646,-0.0646,-0.0646,-0.0782,-0.0787,-0.0793,-0.0822,0,0,-0.0809,-0.0811,0,0,0,0,0,0,0,0,-0.0521,-0.0527,-0.0598,-0.06,-0.0603,-0.0634,-0.0644,-0.0699,-0.0645,-0.0627,-0.0646,-0.0646,-0.0745,-0.0754,-0.0756,-0.0828,-0.0834,-0.081,-0.0813,-0.0815,-0.0817,0,0,0,0,0,0,0,-0.0518,-0.0525,-0.0599,-0.0599,-0.0602,-0.0596,-0.0602,-0.0653,-0.0684,-0.0628,-0.063,-0.064,-0.0747,-0.075,-0.076,-0.0836,-0.0809,-0.0814,-0.0818,-0.082,-0.1107,-0.1111,0,0,0,0,0,0,-0.0521,-0.0522,-0.0597,-0.06,-0.0565,-0.0598,-0.0605,-0.0622,-0.0681,-0.069,-0.064,-0.064,-0.0741,-0.0753,-0.0765,-0.0934,-0.0815,-0.082,-0.0823,-0.1102,-0.1108,-0.1113,0,0,0,0,0,0,-0.0518,-0.0527,-0.0596,-0.0564,-0.0573,-0.06,-0.0619,-0.0622,-0.0636,-0.0689,-0.07,-0.0651,-0.0742,-0.0757,-0.0852,-0.0935,-0.0823,-0.0827,-0.1097,-0.1104,-0.111,-0.119,0,0,0,0,0,0,-0.0515,-0.0526,-0.0535,-0.0565,-0.0575,-0.0614,-0.0619,-0.0623,-0.0643,-0.0644,-0.0703,-0.0715,-0.0743,-0.0844,-0.0857,-0.094,-0.0832,-0.1092,-0.11,-0.1108,-0.1182,-0.1199,-0.1213,0,0,0,0,0,-0.0511,-0.0525,-0.0536,-0.0545,-0.0589,-0.0614,-0.0619,-0.0636,-0.0643,-0.0649,-0.0717,-0.0714,-0.0907,-0.0851,-0.0866,-0.0953,-0.1088,-0.1098,-0.1107,-0.1175,-0.1195,-0.1213,0,0,0,0,0,0,-0.0482,-0.0529,-0.0541,-0.0568,-0.0591,-0.0618,-0.0626,-0.0641,-0.0693,-0.0705,-0.0753,-0.0772,-0.0889,-0.0912,-0.0849,-0.1066,-0.1004,-0.1017,-0.105,-0.107,-0.1085,-0.1047,-0.0836,0,0,0,0,0,-0.0481,-0.0506,-0.0543,-0.0563,-0.0576,-0.0602,-0.0615,-0.063,-0.068,-0.07,-0.0743,-0.0827,-0.094,-0.0993,-0.1061,-0.1168,-0.1138,-0.1242,-0.1258,-0.127,-0.1255,-0.1261,-0.1273,-0.1145,-0.1145,-0.1145,0,0,-0.0477,-0.0504,-0.0518,-0.0558,-0.0577,-0.0609,-0.061,-0.0633,-0.0698,-0.0712,-0.0803,-0.0865,-0.0977,-0.1106,-0.1163,-0.1138,-0.1304,-0.1283,-0.1293,-0.127,-0.1272,-0.1284,-0.1294,-0.1152,-0.1151,-0.115,0,0,-0.0474,-0.0502,-0.052,-0.0547,-0.0582,-0.0609,-0.0619,-0.0654,-0.071,-0.0816,-0.0862,-0.0956,-0.1107,-0.1189,-0.1267,-0.1406,-0.1374,-0.146,-0.1519,-0.1527,-0.1536,-0.1542,-0.155,-0.1557,-0.148,-0.148,-0.148,0,-0.0463,-0.0497,-0.0526,-0.0553,-0.0598,-0.0614,-0.0661,-0.0718,-0.0785,-0.0855,-0.0864,-0.1085,-0.1154,-0.1339,-0.1407,-0.1438,-0.1433,-0.1435,-0.154,-0.1546,-0.1552,-0.1557,-0.1564,-0.1485,-0.1484,-0.1484,-0.1483,0,-0.0481,-0.0508,-0.052,-0.0575,-0.0632,-0.0659,-0.0757,-0.0813,-0.0892,-0.0953,-0.1125,-0.1215,-0.1341,-0.1411,-0.147,-0.1583,-0.1565,-0.1541,-0.1472,-0.1568,-0.157,-0.1575,-0.1492,-0.149,-0.1489,-0.1488,0,0,-0.0449,-0.0518,-0.0523,-0.0582,-0.0652,-0.0717,-0.0834,-0.0958,-0.105,-0.1139,-0.126,-0.1466,-0.1467,-0.1552,-0.1615,-0.1646,-0.1702,-0.1626,-0.1624,-0.1598,-0.1724,-0.163,-0.1625,-0.1692,-0.1693,-0.1693,-0.1718,0,-0.0448,-0.053,-0.0566,-0.0668,-0.0735,-0.0814,-0.092,-0.1047,-0.1168,-0.1265,-0.1388,-0.1506,-0.1545,-0.1608,-0.1651,-0.1688,-0.1716,-0.1698,-0.1665,-0.1664,-0.1538,-0.1628,-0.1697,-0.1721,-0.1722,-0.1723,-0.1723,0,-0.0452,-0.0525,-0.0639,-0.0769,-0.0804,-0.0881,-0.1092,-0.1176,-0.1317,-0.1409,-0.152,-0.1565,-0.1676,-0.1654,-0.1748,-0.1738,-0.1738,-0.1743,-0.1743,-0.1617,-0.1578,-0.1604,-0.1731,-0.173,-0.173,-0.1729,-0.1729,0,-0.0464,-0.0576,-0.0696,-0.0741,-0.0882,-0.0991,-0.1068,-0.1234,-0.1307,-0.147,-0.1513,-0.1641,-0.1694,-0.1721,-0.1762,-0.1755,-0.1806,-0.1787,-0.1699,-0.1693,-0.1727,-0.1719,-0.1803,-0.1803,-0.1803,-0.1803,-0.1803,0,-0.0457,-0.0547,-0.0732,-0.0778,-0.0933,-0.105,-0.1182,-0.1282,-0.1381,-0.1431,-0.1559,-0.1609,-0.1706,-0.1745,-0.1764,-0.1757,-0.1811,-0.171,-0.1692,-0.177,-0.1766,-0.1731,-0.1723,-0.1804,-0.1803,-0.1803,-0.1803,0,-0.0467,-0.0541,-0.0682,-0.0868,-0.0924,-0.1064,-0.1172,-0.1235,-0.1364,-0.1425,-0.1453,-0.1584,-0.1657,-0.1729,-0.1778,-0.1751,-0.1751,-0.1722,-0.1815,-0.1801,-0.1631,-0.1628,-0.1626,-0.1623,-0.162,-0.1618,-0.1616,0,-0.0505,-0.0567,-0.0743,-0.0793,-0.0882,-0.105,-0.1089,-0.1213,-0.1261,-0.1392,-0.139,-0.1498,-0.1577,-0.1602,-0.168,-0.1713,-0.1692,-0.1681,-0.1648,-0.163,-0.1613,-0.1614,-0.1614,-0.1612,-0.1611,-0.161,-0.161,0,-0.0547,-0.059,-0.0674,-0.0766,-0.0849,-0.0921,-0.101,-0.1021,-0.1134,-0.1262,-0.1322,-0.1375,-0.1454,-0.1534,-0.1578,-0.159,-0.1688,-0.1653,-0.1658,-0.1626,-0.1613,-0.1599,-0.1602,-0.16,-0.1602,-0.1603,-0.1603,0,-0.0547,-0.0597,-0.0627,-0.0725,-0.0783,-0.0766,-0.0838,-0.0899,-0.0946,-0.1119,-0.1133,-0.1282,-0.1421,-0.1466,-0.1497,-0.1522,-0.15,-0.1455,-0.147,-0.1481,-0.1426,-0.1387,-0.1291,0,0,0,0,0,-0.0533,-0.0495,-0.0557,-0.0587,-0.0645,-0.0671,-0.0745,-0.0814,-0.0944,-0.0956,-0.1048,-0.1126,-0.1218,-0.1302,-0.1301,-0.1399,-0.1474,-0.1387,-0.1419,-0.1549,-0.156,-0.151,0,0,0,0,0,0,-0.0456,-0.0482,-0.0499,-0.0458,-0.0464,-0.0482,-0.0524,-0.0617,-0.0658,-0.0827,-0.0901,-0.1053,-0.117,-0.1211,-0.1278,-0.1301,-0.1296,-0.1497,-0.1494,-0.1543,-0.1553,-0.1561,-0.1514,0,0,0,0,0]},{"header":{"parameterUnit":"m.s-1","parameterCategory":2,"la1":30.2991,"la2":30.254,"lo1":-89.0895,"lo2":-89.0444,"dy":0.0017,"dx":0.0017,"nx":28,"ny":28,"refTime":"2024-06-20T03:00:00:Z","depth":"4","parameterNumber":3,"parameterNumberName":"V-component_of_CURRENTS"},"data":[0,0,0,0,0,0,0,0,0,0,0,0,0,0,0,0,0,0,0,0,0,0,0,0,0,0,0,0,0,0,0,0,0,0,0,0,0,0,0,0,0,0,0,0,0,0,0,0,0,0,0,0,0,0,0,0,0,0,0.0108,0.0109,0,0.0154,0.0155,0.0155,0.0209,0.021,0.0211,0.0212,0.032,0.0322,0.0324,0,0,0,0,0,0,0,0,0,0,0,0,0,0.0131,0.013,0.0108,0.0109,0.0109,0.0154,0.0155,0.0156,0.0209,0.021,0.0211,0.0212,0.0319,0.0322,0.0324,0,0,0,0,0,0,0,0,0,0,0,0,0,0.0144,0.013,0.0108,0.0141,0.0145,0.0154,0.0155,0.0156,0.0209,0.021,0.0211,0.0212,0.0319,0.0322,0.0325,0.0321,0,0,0.0335,0.0336,0,0,0,0,0,0,0,0,0.0143,0.0143,0.0136,0.0139,0.0143,0.0177,0.0203,0.0214,0.0209,0.0185,0.0212,0.0213,0.0277,0.0284,0.0289,0.0326,0.033,0.0335,0.0337,0.0338,0.0339,0,0,0,0,0,0,0,0.0142,0.0141,0.0127,0.0136,0.0141,0.0176,0.0179,0.0205,0.0225,0.0187,0.0191,0.0195,0.028,0.0286,0.0292,0.0332,0.0335,0.0338,0.034,0.0341,0.0367,0.0365,0,0,0,0,0,0,0.0131,0.014,0.0125,0.0128,0.0146,0.0174,0.0177,0.0165,0.0223,0.0233,0.0194,0.0198,0.028,0.0288,0.0296,0.0284,0.0338,0.0341,0.0343,0.0368,0.0366,0.0365,0,0,0,0,0,0,0.013,0.0128,0.0123,0.0136,0.0138,0.0172,0.0158,0.0165,0.0178,0.0228,0.0239,0.0201,0.0281,0.0292,0.0308,0.0289,0.0343,0.0346,0.0369,0.0367,0.0366,0.0266,0,0,0,0,0,0,0.0131,0.0127,0.0124,0.0135,0.0137,0.0119,0.0158,0.0165,0.0179,0.0184,0.0237,0.0248,0.0283,0.0303,0.0311,0.0294,0.0348,0.0371,0.0368,0.0366,0.0271,0.0261,0.0252,0,0,0,0,0,0.0131,0.0114,0.0123,0.0122,0.0127,0.0118,0.0121,0.0151,0.0178,0.017,0.0204,0.0247,0.0295,0.0304,0.0315,0.0298,0.0372,0.0369,0.0366,0.0275,0.0263,0.0253,0,0,0,0,0,0,0.0123,0.0118,0.0128,0.0111,0.0111,0.0126,0.013,0.0147,0.0168,0.018,0.0231,0.0242,0.0245,0.0285,0.0294,0.0298,0.034,0.0339,0.0267,0.0257,0.0247,0.0239,0.0351,0,0,0,0,0,0.0118,0.0104,0.0104,0.0092,0.009,0.011,0.0116,0.0128,0.0145,0.0156,0.0186,0.0221,0.0239,0.0259,0.0277,0.0285,0.0337,0.0281,0.0272,0.0264,0.0263,0.0313,0.0308,0.0356,0.0356,0.0356,0,0,0.0115,0.0109,0.0105,0.009,0.0098,0.0067,0.0116,0.0113,0.0091,0.0165,0.015,0.0184,0.023,0.0228,0.0234,0.0264,0.0277,0.026,0.0253,0.0257,0.0309,0.0305,0.0301,0.0354,0.0354,0.0354,0,0,0.0082,0.0091,0.0062,0.005,0.0047,0.0049,0.0043,0.0047,0.0057,0.0051,0.0088,0.0109,0.0145,0.0162,0.0182,0.0136,0.0217,0.0148,0.0107,0.0154,0.0151,0.0149,0.0208,0.0212,0.0154,0.0154,0.0154,0,0.0078,0.0039,0.0054,0.0013,-0.0001,0.0031,-0.0013,-0.0009,-0.0003,0.0005,0.0035,0.0077,0.011,0.0114,0.0095,0.0114,0.0166,0.0145,0.0143,0.0142,0.0142,0.0202,0.0208,0.0149,0.0149,0.015,0.015,0,0.0012,-0.0016,-0.0034,-0.008,-0.0098,-0.0122,-0.0129,-0.0135,-0.0109,-0.0096,-0.008,-0.0033,0.0001,0.0009,0.0042,0.0047,0.0092,0.0116,0.0171,0.0131,0.0197,0.0205,0.0141,0.0143,0.0145,0.0146,0,0,0.0001,-0.0068,-0.0072,-0.0107,-0.0145,-0.0169,-0.0207,-0.0224,-0.023,-0.0203,-0.02,-0.017,-0.0119,-0.0094,-0.0049,-0.0005,0.0029,0.0055,0.006,0.0113,0.0152,0.0143,0.0152,0.0062,0.0063,0.0064,0.02,0,-0.0048,-0.0136,-0.0164,-0.0245,-0.0282,-0.0286,-0.0327,-0.0336,-0.0309,-0.0302,-0.0235,-0.0216,-0.0165,-0.0136,-0.0093,0.0002,0.0045,-0.0009,0.0184,0.0189,0.0186,0.0158,0.0066,0.0206,0.0208,0.021,0.0211,0,-0.0085,-0.0146,-0.0234,-0.0314,-0.0333,-0.039,-0.0421,-0.0451,-0.043,-0.04,-0.0354,-0.0296,-0.0236,-0.0186,-0.0036,-0.0065,0.0027,0.0106,0.0113,0.0146,0.0194,0.0257,0.0226,0.0225,0.0224,0.0223,0.0222,0,-0.006,-0.0178,-0.0246,-0.0278,-0.0378,-0.0421,-0.0466,-0.0474,-0.0486,-0.0452,-0.0429,-0.035,-0.0289,-0.0171,-0.001,-0.0014,0.0168,0.0184,0.0261,0.0264,0.0278,0.028,0.0275,0.0275,0.0274,0.0274,0.0273,0,-0.0068,-0.0117,-0.025,-0.0286,-0.0391,-0.0442,-0.0508,-0.0528,-0.0534,-0.0539,-0.0474,-0.0434,-0.0278,-0.0155,-0.0021,0.0151,0.0165,0.0251,0.0292,0.0233,0.0227,0.0285,0.0284,0.0279,0.0278,0.0277,0.0276,0,-0.0014,-0.0081,-0.0187,-0.0331,-0.0376,-0.0453,-0.0559,-0.0589,-0.0583,-0.0581,-0.0569,-0.0476,-0.0314,-0.0153,0.0054,0.0142,0.0301,0.0354,0.0288,0.0324,0.037,0.0363,0.0451,0.0451,0.0452,0.0452,0.0453,0,-0.0006,-0.0046,-0.0223,-0.0303,-0.0379,-0.0489,-0.0554,-0.0604,-0.0624,-0.0595,-0.0586,-0.0456,-0.037,-0.0084,0.0078,0.0321,0.0344,0.0422,0.0375,0.0354,0.0386,0.0377,0.0369,0.0454,0.0454,0.0454,0.0454,0,-0.0014,-0.0064,-0.016,-0.0321,-0.043,-0.0535,-0.0623,-0.0639,-0.0665,-0.066,-0.0585,-0.0457,-0.0284,-0.0083,0.0102,0.0273,0.0367,0.0428,0.0428,0.0384,0.0359,0.0388,0.0379,0.0456,0.0456,0.0456,0.0456,0,-0.003,-0.0103,-0.0222,-0.0362,-0.0477,-0.0555,-0.0607,-0.064,-0.0662,-0.063,-0.0598,-0.0432,-0.0339,-0.0105,0.0072,0.023,0.0261,0.0296,0.0303,0.0303,0.0206,0.0149,0.0214,0,0,0,0,0,-0.007,-0.0134,-0.026,-0.0407,-0.05,-0.0568,-0.0643,-0.0674,-0.0687,-0.0642,-0.0624,-0.0468,-0.0228,-0.0124,0.0035,0.0087,0.0294,0.0276,0.034,0.0467,0.0465,0.0373,0,0,0,0,0,0,-0.0095,-0.0196,-0.026,-0.0394,-0.0482,-0.0586,-0.0633,-0.0649,-0.0622,-0.0612,-0.0482,-0.0438,-0.0196,-0.031,0.0039,0.0085,0.0143,0.0385,0.0388,0.0468,0.0466,0.0464,0.037,0,0,0,0,0]}]]